Back to catalog

USA 554

AliveMilitaryGEO
NORAD 65161·PAYLOAD·🇺🇸 United States

Launched Aug 13, 2025 from Cape Canaveral Space Force Station

Loading…

TLE

StaleSource: Mike McCants

Epoch: Dec 25, 2025, 20:13 UTC

1 65161U 25173B   25359.84271250 0.00000000  00000-0  00000-0 0    03
2 65161   2.8470  33.8717 0008930 181.1439 178.8561  0.98975314    00

Track USA 554 in real time with AllMySat

Download on the App Store